Regional Weather Roundup
Issued by NWS

Home | Current Version | Previous Version | Graphics & Text | Print | Product List | Glossary On
Versions: 1 2 3 4 5 6 7 8 9 10 11 12 13 14 15 16 17 18 19 20 21 22 23 24 25 26 27 28
000
ASUS45 KCYS 222110
RWRWY

WYOMING REGIONAL WEATHER ROUNDUP
NATIONAL WEATHER SERVICE CHEYENNE WY
300 PM MDT WED MAR 22 2017

NOTE:  "FAIR" INDICATES FEW OR NO CLOUDS BELOW 12,000 FEET
WITH NO SIGNIFICANT WEATHER AND/OR OBSTRUCTIONS TO VISIBILITY.

WYZ001-222200-
YELLOWSTONE NATIONAL PARK

CITY           SKY/WX    TMP DP  RH WIND       PRES   REMARKS
LK YELLOWSTONE   N/A     43  25  49 VRB3      29.93F
W YELLOWSTONE  NOT AVBL

$$
WYZ002>013-054>058-071-098>099-222200-
NORTHERN WYOMING

CITY           SKY/WX    TMP DP  RH WIND       PRES   REMARKS
JACKSON        PTSUNNY   45  36  70 SW9       29.89F
CODY           FAIR      63  23  21 W8        29.80F
GREYBULL       FAIR      63  38  39 SE5       29.76F
WORLAND        FAIR      67  37  33 VRB3      29.76F
SHERIDAN       FAIR      57  41  55 CALM      29.80F
BUFFALO        FAIR      60  37  42 NE7       29.83F
GILLETTE         N/A     61  40  45 N10       29.80F
HULETT         FAIR      63  36  36 NW3       29.82S
NEWCASTLE      FAIR      68  32  26 SE8G17    29.79F

$$
WYZ014>020-022>026-101>103-222200-
CENTRAL WYOMING

CITY           SKY/WX    TMP DP  RH WIND       PRES   REMARKS
BIG PINEY      FAIR      42  37  82 SE3       29.94F
PINEDALE       CLOUDY    41  37  87 NE6       29.95F
DUBOIS         FAIR      50  27  40 W18G26    29.88F
LANDER         PTSUNNY   59  36  42 NE9       29.83F
RIVERTON       FAIR      60  38  43 NW14G20   29.84F
CASPER         FAIR      66  33  29 SW20G26   29.83F
DOUGLAS        PTSUNNY   66  35  31 SE6       29.83F

$$
WYZ021-027>030-104>119-222200-
SOUTHERN WYOMING

CITY           SKY/WX    TMP DP  RH WIND       PRES   REMARKS
EVANSTON       CLOUDY    45  37  73 N20G25    29.92F
KEMMERER         N/A     43  36  75 N9        29.94F
FORT BRIDGER   FAIR      60  28  29 SW22G31   29.94F
ROCK SPRINGS   FAIR      60  34  37 W13       29.91F
DIXON            N/A     64  24  21 SW22G28   29.95F
RAWLINS        FAIR      64  24  21 S28G37    29.92F
SARATOGA       FAIR      59  27  29 SW17      29.96F
LARAMIE        FAIR      65  19  17 SW33G40   29.92F
CHEYENNE       FAIR      65  30  27 S16       29.90F
TORRINGTON     FAIR      70  30  22 SE14G22   29.81F
PINE BLUFFS    FAIR      68  32  26 S17G23    29.88F

$$




USA.gov is the U.S. government's official web portal to all federal, state and local government web resources and services.